{"data":{"norad_id":43792,"epoch":"2026-05-25T02:19:55.265088Z","epoch_age_seconds":60415,"freshness":"FRESH","line1":"1 43792U 18099AL  26145.09716742  .00001196  00000+0  90250-4 0  9992","line2":"2 43792  97.3994 183.4741 0013686  58.1401 302.1155 15.04167457408334","mean_motion":15.04167457,"eccentricity":0.0013686,"inclination_deg":97.3994,"raan_deg":183.4741,"arg_perigee_deg":58.1401,"mean_anomaly_deg":302.1155,"bstar":9.025e-5,"rev_number":40833,"period_min":95.734021720695,"perigee_km":544.57503429131,"apogee_km":563.54985060518,"semimajor_km":6932.1994424482,"source":"CELESTRAK","updated_at":"2026-05-25T13:37:55.897144Z"}}